Wright-Patt AFB, OH

9:46 PM EST on November 22, 2017 (GMT -0500)
Wright-Patterson Air Force Base

Weather History for KFFO - October, 2013

Change the Weather History Date:

Sunday, October 6, 2013

  Actual Average Record
Temperature  
Mean Temperature 62 °F -  
Max Temperature 72 °F 67 °F 87 °F (2007)
Min Temperature 52 °F 44 °F 32 °F (2004)
Degree Days  
Heating Degree Days 2    
Growing Degree Days 12 (Base 50)    
Moisture  
Dew Point 62 °F    
Average Humidity 94    
Maximum Humidity 100    
Minimum Humidity 78    
Precipitation  
Precipitation 1.88 in - - ()
Sea Level Pressure  
Sea Level Pressure 29.84 in    
Wind  
Wind Speed 10 mph (SSW)    
Max Wind Speed 25 mph    
Max Gust Speed 43 mph    
Visibility 8 miles    
Events Fog , Rain , Thunderstorm    
Averages and records for this station are not official NWS values.
T = Trace of Precipitation, MM = Missing Value Source: NWS Daily Summary

Daily Weather History Graph

Daily Weather History Graph

Search for Another Location

Airport or City:

Trip Planner

Search our weather history database for the weather conditions in past years. The results will help you decide how hot, cold, wet, or windy it might be!

Date:

Astronomy

Oct. 06, 2013 Rise Set
Actual Time 7:37 AM EDT 7:10 PM EDT
Civil Twilight 7:10 AM EDT 7:37 PM EDT
Nautical Twilight 6:39 AM EDT 8:08 PM EDT
Astronomical Twilight 6:07 AM EDT 8:39 PM EDT
Moon 9:20 AM EDT (10/6) 8:09 PM EDT (10/6)
Length of Visible Light 12h 26m
Length of Day
11h 32m
Waxing Crescent, 3% of the Moon is Illuminated
Oct 6
Waxing Crescent
Oct 11
First Quarter
Oct 18
Full
Oct 26
Last Quarter
Nov 3
New

Hourly Weather History & Observations

Time (EDT) Temp. Dew Point Humidity Pressure Visibility Wind Dir Wind Speed Gust Speed Precip Events Conditions
12:58 AM 69.1 °F 67.8 °F 96% 29.95 in 10.0 mi SSE 11.5 mph - 0.06 in Rain Light Rain
1:38 AM 68.0 °F 66.2 °F 94% 29.95 in 9.0 mi South 9.2 mph - N/A Rain Light Rain
1:58 AM 68.0 °F 66.6 °F 95% 29.95 in 6.0 mi South 10.4 mph - 0.13 in Rain Light Rain
2:18 AM 68.0 °F 66.2 °F 94% 29.95 in 9.0 mi South 10.4 mph - N/A Rain Light Rain
2:30 AM 68.0 °F 66.2 °F 94% 29.95 in 8.0 mi South 10.4 mph - N/A Rain Rain
2:58 AM 67.3 °F 66.2 °F 96% 29.94 in 9.0 mi South 8.1 mph - 0.18 in Rain Light Rain
3:18 AM 66.2 °F 66.2 °F 100% 29.93 in 9.0 mi South 5.8 mph - N/A Rain Light Rain
3:48 AM 66.2 °F 66.2 °F 100% 29.89 in 10.0 mi ESE 4.6 mph - N/A Rain Light Rain
3:58 AM 66.4 °F 65.8 °F 98% 29.88 in 8.0 mi ESE 5.8 mph - 0.09 in Rain Rain
4:08 AM 66.2 °F 66.2 °F 100% 29.89 in 10.0 mi SSE 8.1 mph - N/A   Light Drizzle
4:18 AM 66.2 °F 66.2 °F 100% 29.87 in 10.0 mi SSE 8.1 mph - N/A   Light Drizzle
4:19 AM 66.2 °F 66.2 °F 100% 29.87 in 10.0 mi SE 8.1 mph - N/A   Mostly Cloudy
4:29 AM 66.2 °F 66.2 °F 100% 29.87 in 10.0 mi SE 8.1 mph - N/A   Mostly Cloudy
4:43 AM 66.2 °F 66.2 °F 100% 29.86 in 10.0 mi SSE 6.9 mph - N/A   Overcast
4:58 AM 66.0 °F 65.5 °F 98% 29.86 in 10.0 mi SSE 6.9 mph - 0.02 in   Overcast
5:57 AM 66.2 °F 66.2 °F 100% 29.89 in 10.0 mi WSW 16.1 mph 17.3 mph N/A Rain , Thunderstorm Light Rain
5:58 AM 66.2 °F 66.2 °F 100% 29.90 in 10.0 mi WSW 17.3 mph - N/A Rain , Thunderstorm Light Rain
6:08 AM 66.2 °F 64.4 °F 94% 29.90 in 1.5 mi WSW 13.8 mph 21.9 mph N/A Rain , Thunderstorm Heavy Rain
6:20 AM 66.2 °F 64.4 °F 94% 29.90 in 5.0 mi WSW 10.4 mph - N/A Rain , Thunderstorm Light Rain
6:28 AM 66.2 °F 64.4 °F 94% 29.90 in 3.0 mi SW 9.2 mph - N/A Rain , Thunderstorm Rain
6:38 AM 66.2 °F 64.4 °F 94% 29.91 in 4.0 mi SSW 10.4 mph - N/A Rain Light Rain
6:58 AM 65.1 °F 64.2 °F 97% 29.91 in 6.0 mi SSW 11.5 mph - 0.30 in Rain Light Rain
7:08 AM 64.4 °F 64.4 °F 100% 29.90 in 6.0 mi SSW 8.1 mph - N/A Rain Light Rain
7:48 AM 64.4 °F 64.4 °F 100% 29.89 in 5.0 mi South 5.8 mph - N/A Rain Light Rain
7:58 AM 64.8 °F 63.9 °F 97% 29.88 in 10.0 mi South 5.8 mph - 0.16 in Rain Light Rain
8:08 AM 64.4 °F 64.4 °F 100% 29.88 in 10.0 mi South 8.1 mph - N/A   Overcast
8:14 AM 64.4 °F 62.6 °F 94% 29.87 in 10.0 mi South 5.8 mph - N/A   Light Drizzle
8:24 AM 64.4 °F 64.4 °F 100% 29.88 in 10.0 mi SSE 4.6 mph - N/A   Mostly Cloudy
8:30 AM 64.4 °F 64.4 °F 100% 29.87 in 10.0 mi SE 5.8 mph - N/A   Light Drizzle
8:58 AM 64.9 °F 63.9 °F 96% 29.89 in 3.0 mi South 9.2 mph - 0.03 in Rain Rain
9:08 AM 64.4 °F 64.4 °F 100% 29.88 in 2.5 mi South 11.5 mph - N/A Rain Light Rain
9:18 AM 64.4 °F 64.4 °F 100% 29.88 in 5.0 mi SSE 9.2 mph - N/A Rain Light Rain
9:58 AM 64.6 °F 63.7 °F 97% 29.88 in 5.0 mi SSE 10.4 mph - 0.18 in Rain Light Rain
10:58 AM 64.9 °F 63.9 °F 96% 29.86 in 7.0 mi SSE 10.4 mph - 0.04 in Rain Light Rain
11:58 AM 65.7 °F 64.2 °F 95% 29.85 in 7.0 mi SSE 5.8 mph - 0.02 in Rain Light Rain
12:08 PM 66.2 °F 64.4 °F 94% 29.82 in 7.0 mi SE 9.2 mph - N/A Rain Light Rain
12:33 PM 68.0 °F 66.2 °F 94% 29.81 in 10.0 mi SSE 10.4 mph - N/A   Overcast
12:59 PM 68.4 °F 66.2 °F 93% 29.80 in 10.0 mi SSE 12.7 mph - 0.00 in   Overcast
1:58 PM 70.3 °F 66.2 °F 87% 29.78 in 10.0 mi South 17.3 mph 23.0 mph N/A   Overcast
2:50 PM 73.4 °F 66.2 °F 78% 29.74 in 10.0 mi South 16.1 mph - N/A   Overcast
2:58 PM 72.9 °F 66.4 °F 80% 29.75 in 10.0 mi South 13.8 mph - N/A   Overcast
3:58 PM 72.3 °F 66.4 °F 82% 29.71 in 10.0 mi South 18.4 mph 26.5 mph N/A Thunderstorm Overcast
4:13 PM 73.4 °F 66.2 °F 78% 29.71 in 7.0 mi South 16.1 mph 23.0 mph N/A Rain , Thunderstorm Light Thunderstorms and Rain
4:27 PM 71.6 °F 66.2 °F 83% 29.71 in 6.0 mi South 16.1 mph 23.0 mph N/A Rain , Thunderstorm Light Thunderstorms and Rain
4:30 PM 71.6 °F 66.2 °F 83% 29.71 in 6.0 mi SW 25.3 mph 42.6 mph N/A Rain , Thunderstorm Light Thunderstorms and Rain
4:43 PM 64.4 °F 62.6 °F 94% 29.73 in 1.0 mi WSW 16.1 mph 27.6 mph N/A Rain , Thunderstorm Heavy Thunderstorms and Rain
4:48 PM 62.6 °F 62.6 °F 100% 29.74 in 0.5 mi West 18.4 mph 25.3 mph N/A Fog , Rain , Thunderstorm Heavy Thunderstorms and Rain
4:58 PM 62.8 °F 61.5 °F 96% 29.74 in 7.0 mi West 16.1 mph - 0.42 in Rain , Thunderstorm Light Thunderstorms and Rain
5:07 PM 62.6 °F 60.8 °F 94% 29.74 in 7.0 mi WSW 12.7 mph - N/A Rain , Thunderstorm Light Rain
5:34 PM 62.6 °F 60.8 °F 94% 29.74 in 10.0 mi WSW 10.4 mph - N/A   Overcast
5:57 PM 62.8 °F 60.6 °F 93% 29.75 in 10.0 mi WSW 12.7 mph - 0.00 in   Overcast
6:06 PM 62.6 °F 60.8 °F 94% 29.76 in 7.0 mi WSW 10.4 mph - N/A Rain Light Rain
6:28 PM 60.8 °F 59.0 °F 94% 29.78 in 7.0 mi SW 20.7 mph 26.5 mph N/A Rain Light Rain
6:38 PM 60.8 °F 59.0 °F 94% 29.78 in 10.0 mi WSW 17.3 mph 26.5 mph N/A Rain Light Rain
6:58 PM 60.1 °F 55.6 °F 85% 29.78 in 10.0 mi WSW 10.4 mph - 0.01 in   Overcast
7:36 PM 59.0 °F 53.6 °F 82% 29.81 in 10.0 mi WSW 9.2 mph - N/A Rain Light Rain
7:58 PM 57.4 °F 51.4 °F 81% 29.80 in 7.0 mi West 10.4 mph - 0.00 in Rain Light Rain
8:10 PM 55.4 °F 51.8 °F 88% 29.83 in 7.0 mi West 11.5 mph - N/A Rain Rain
8:58 PM 52.9 °F 50.7 °F 92% 29.82 in 10.0 mi South 6.9 mph - 0.17 in Rain Light Rain
9:29 PM 53.6 °F 51.8 °F 94% 29.82 in 6.0 mi South 5.8 mph - N/A Rain Light Rain
9:58 PM 54.3 °F 52.7 °F 94% 29.83 in 10.0 mi SSW 8.1 mph - 0.06 in Rain Light Rain
10:14 PM 55.4 °F 53.6 °F 94% 29.82 in 10.0 mi South 5.8 mph - N/A Rain Light Rain
10:58 PM 54.5 °F 52.3 °F 92% 29.82 in 10.0 mi SSW 6.9 mph - 0.01 in Rain Light Rain
11:06 PM 53.6 °F 51.8 °F 94% 29.82 in 10.0 mi SSW 10.4 mph - N/A   Mostly Cloudy
11:24 PM 53.6 °F 51.8 °F 94% 29.81 in 10.0 mi SSW 8.1 mph - N/A Rain Light Rain
11:37 PM 53.6 °F 51.8 °F 94% 29.83 in 10.0 mi SSW 11.5 mph - N/A   Mostly Cloudy
11:47 PM 53.6 °F 51.8 °F 94% 29.82 in 10.0 mi SW 10.4 mph - N/A   Mostly Cloudy
11:57 PM 53.6 °F 51.8 °F 94% 29.83 in 10.0 mi SW 10.4 mph - N/A   Mostly Cloudy
11:58 PM 53.6 °F 51.8 °F 94% 29.83 in 10.0 mi SW 10.4 mph - 0.00 in   Mostly Cloudy